Bremerton, WA

7:04 PM PDT on August 16, 2017 (GMT -0700)
Bremerton National

Weather History for KPWT - December, 2012

Change the Weather History Date:

Wednesday, December 5, 2012

  Actual Average Record
Temperature  
Mean Temperature 40 °F -  
Max Temperature 44 °F 43 °F 51 °F (1997)
Min Temperature 35 °F 33 °F 14 °F (2013)
Degree Days  
Heating Degree Days 26    
Moisture  
Dew Point 34 °F    
Average Humidity 81    
Maximum Humidity 87    
Minimum Humidity 70    
Precipitation  
Precipitation 0.01 in - - ()
Sea Level Pressure  
Sea Level Pressure 30.14 in    
Wind  
Wind Speed 11 mph (South)    
Max Wind Speed 17 mph    
Max Gust Speed 24 mph    
Visibility 10 miles    
Events      
Averages and records for this station are not official NWS values.
T = Trace of Precipitation, MM = Missing Value Source: NWS Daily Summary

Daily Weather History Graph

Daily Weather History Graph

Search for Another Location

Airport or City:

Trip Planner

Search our weather history database for the weather conditions in past years. The results will help you decide how hot, cold, wet, or windy it might be!

Date:

Astronomy

Dec. 05, 2012 Rise Set
Actual Time 7:43 AM PST 4:20 PM PST
Civil Twilight 7:07 AM PST 4:55 PM PST
Nautical Twilight 6:29 AM PST 5:34 PM PST
Astronomical Twilight 5:51 AM PST 6:11 PM PST
Moon 11:38 PM PST (12/5) 11:49 AM PST (12/5)
Length of Visible Light 9h 48m
Length of Day
8h 37m
Waning Gibbous, 58% of the Moon is Illuminated
Dec 5
Waning Gibbous
Dec 6
Last Quarter
Dec 13
New
Dec 19
First Quarter
Dec 28
Full

Hourly Weather History & Observations

Time (PST) Temp. Windchill Dew Point Humidity Pressure Visibility Wind Dir Wind Speed Gust Speed Precip Events Conditions
12:15 AM 41.0 °F 33.1 °F 35.6 °F 81% 29.86 in 10.0 mi South 15.0 mph 20.7 mph N/A   Clear
12:35 AM 41.0 °F 33.1 °F 35.6 °F 81% 29.87 in 10.0 mi South 15.0 mph 24.2 mph N/A   Clear
12:55 AM 41.0 °F 34.3 °F 35.6 °F 81% 29.90 in 10.0 mi South 11.5 mph 17.3 mph N/A   Clear
1:15 AM 41.0 °F 33.5 °F 33.8 °F 76% 29.90 in 10.0 mi South 13.8 mph 23.0 mph N/A   Clear
1:35 AM 39.2 °F 31.2 °F 33.8 °F 81% 29.93 in 10.0 mi South 13.8 mph - N/A   Scattered Clouds
1:55 AM 39.2 °F 30.5 °F 33.8 °F 81% 29.94 in 10.0 mi South 16.1 mph - N/A   Partly Cloudy
2:15 AM 39.2 °F 30.5 °F 33.8 °F 81% 29.94 in 10.0 mi South 16.1 mph 20.7 mph N/A   Clear
2:35 AM 39.2 °F 30.2 °F 33.8 °F 81% 29.96 in 10.0 mi South 17.3 mph 21.9 mph N/A   Partly Cloudy
2:55 AM 39.2 °F 30.5 °F 33.8 °F 81% 29.98 in 10.0 mi SSW 16.1 mph - N/A   Clear
3:15 AM 37.4 °F 29.3 °F 33.8 °F 87% 29.98 in 10.0 mi South 12.7 mph - N/A   Clear
3:35 AM 37.4 °F 29.3 °F 32.0 °F 81% 30.00 in 10.0 mi South 12.7 mph - N/A   Clear
3:55 AM 39.2 °F 32.0 °F 33.8 °F 81% 30.02 in 10.0 mi South 11.5 mph 19.6 mph N/A   Clear
4:15 AM 39.2 °F 34.2 °F 32.0 °F 75% 30.02 in 10.0 mi SSE 6.9 mph - N/A   Partly Cloudy
4:35 AM 37.4 °F 30.3 °F 32.0 °F 81% 30.04 in 10.0 mi SSE 10.4 mph - N/A   Mostly Cloudy
4:55 AM 37.4 °F 30.8 °F 32.0 °F 81% 30.06 in 10.0 mi SSE 9.2 mph 16.1 mph N/A   Mostly Cloudy
6:35 AM 37.4 °F 28.9 °F 32.0 °F 81% 30.09 in 10.0 mi South 13.8 mph - N/A   Clear
6:55 AM 37.4 °F 30.3 °F 32.0 °F 81% 30.11 in 10.0 mi South 10.4 mph 16.1 mph N/A   Clear
7:15 AM 37.4 °F 30.3 °F 30.2 °F 75% 30.13 in 10.0 mi South 10.4 mph - N/A   Clear
7:35 AM 35.6 °F 29.2 °F 30.2 °F 81% 30.13 in 10.0 mi South 8.1 mph - N/A   Clear
7:55 AM 35.6 °F 29.2 °F 30.2 °F 81% 30.14 in 10.0 mi SSW 8.1 mph - N/A   Clear
8:15 AM 35.6 °F 29.2 °F 30.2 °F 81% 30.15 in 10.0 mi SSW 8.1 mph - N/A   Clear
8:35 AM 37.4 °F 31.4 °F 32.0 °F 81% 30.15 in 10.0 mi South 8.1 mph - N/A   Clear
8:55 AM 37.4 °F 31.4 °F 33.8 °F 87% 30.16 in 10.0 mi SSW 8.1 mph - N/A   Clear
9:15 AM 39.2 °F 34.2 °F 33.8 °F 81% 30.17 in 10.0 mi SW 6.9 mph - N/A   Clear
9:35 AM 39.2 °F 33.6 °F 33.8 °F 81% 30.18 in 10.0 mi SSW 8.1 mph - N/A   Clear
9:55 AM 41.0 °F 35.8 °F 33.8 °F 76% 30.18 in 10.0 mi SSW 8.1 mph - N/A   Clear
10:15 AM 41.0 °F 33.1 °F 35.6 °F 81% 30.19 in 10.0 mi South 15.0 mph - N/A   Clear
10:35 AM 42.8 °F 35.8 °F 35.6 °F 76% 30.20 in 10.0 mi SSW 13.8 mph 18.4 mph N/A   Clear
10:55 AM 42.8 °F 37.0 °F 33.8 °F 70% 30.21 in 10.0 mi South 10.4 mph - N/A   Clear
11:15 AM 44.6 °F 38.8 °F 35.6 °F 71% 30.21 in 10.0 mi South 11.5 mph - N/A   Clear
11:35 AM 44.6 °F 38.8 °F 35.6 °F 71% 30.21 in 10.0 mi South 11.5 mph - N/A   Clear
11:55 AM 44.6 °F 38.1 °F 37.4 °F 76% 30.21 in 10.0 mi South 13.8 mph - N/A   Partly Cloudy
12:15 PM 44.6 °F 38.4 °F 37.4 °F 76% 30.21 in 10.0 mi South 12.7 mph - N/A   Scattered Clouds
12:35 PM 44.6 °F 38.8 °F 35.6 °F 71% 30.20 in 10.0 mi SSW 11.5 mph - N/A   Scattered Clouds
12:55 PM 44.6 °F 40.7 °F 35.6 °F 71% 30.20 in 10.0 mi South 6.9 mph - N/A   Partly Cloudy
1:15 PM 44.6 °F 39.7 °F 35.6 °F 71% 30.20 in 10.0 mi South 9.2 mph - N/A   Mostly Cloudy
1:35 PM 44.6 °F 39.7 °F 35.6 °F 71% 30.18 in 10.0 mi SSW 9.2 mph - N/A   Mostly Cloudy
1:55 PM 44.6 °F 40.2 °F 35.6 °F 71% 30.18 in 10.0 mi South 8.1 mph - N/A   Overcast
2:15 PM 44.6 °F 40.2 °F 35.6 °F 71% 30.18 in 10.0 mi SW 8.1 mph - N/A   Overcast
2:35 PM 42.8 °F 37.0 °F 35.6 °F 76% 30.20 in 7.0 mi South 10.4 mph - 0.01 in   Mostly Cloudy
2:55 PM 41.0 °F 37.1 °F 35.6 °F 81% 30.20 in 10.0 mi South 5.8 mph - 0.01 in   Partly Cloudy
3:15 PM 41.0 °F 38.0 °F 35.6 °F 81% 30.20 in 10.0 mi South 4.6 mph - N/A   Partly Cloudy
3:35 PM 41.0 °F 36.4 °F 33.8 °F 76% 30.21 in 10.0 mi South 6.9 mph - N/A   Mostly Cloudy
3:55 PM 41.0 °F 35.8 °F 35.6 °F 81% 30.20 in 10.0 mi SSW 8.1 mph - N/A   Mostly Cloudy
4:15 PM 39.2 °F 35.0 °F 33.8 °F 81% 30.22 in 10.0 mi South 5.8 mph - N/A   Overcast
4:35 PM 39.2 °F 37.0 °F 33.8 °F 81% 30.20 in 10.0 mi SSE 3.5 mph - N/A   Mostly Cloudy
4:55 PM 39.2 °F 35.9 °F 33.8 °F 81% 30.21 in 10.0 mi SSE 4.6 mph - N/A   Scattered Clouds
5:15 PM 37.4 °F 34.9 °F 33.8 °F 87% 30.20 in 10.0 mi SSE 3.5 mph - N/A   Clear
5:35 PM 37.4 °F 34.9 °F 33.8 °F 87% 30.21 in 10.0 mi SSE 3.5 mph - N/A   Clear
5:55 PM 37.4 °F - 33.8 °F 87% 30.21 in 10.0 mi Calm Calm - N/A   Clear
6:15 PM 37.4 °F - 33.8 °F 87% 30.21 in 10.0 mi Calm Calm - N/A   Scattered Clouds
6:35 PM 37.4 °F 34.9 °F 33.8 °F 87% 30.22 in 10.0 mi SSW 3.5 mph - N/A   Overcast
6:55 PM 39.2 °F 35.0 °F 35.6 °F 87% 30.21 in 10.0 mi South 5.8 mph - N/A   Overcast
7:15 PM 39.2 °F 35.0 °F 35.6 °F 87% 30.21 in 10.0 mi South 5.8 mph - N/A   Mostly Cloudy
7:35 PM 39.2 °F 33.0 °F 35.6 °F 87% 30.21 in 10.0 mi South 9.2 mph - N/A   Partly Cloudy
7:55 PM 39.2 °F 34.2 °F 33.8 °F 81% 30.22 in 10.0 mi South 6.9 mph - N/A   Mostly Cloudy
8:15 PM 39.2 °F 33.6 °F 35.6 °F 87% 30.21 in 10.0 mi South 8.1 mph - N/A   Overcast
8:35 PM 39.2 °F 32.5 °F 35.6 °F 87% 30.21 in 10.0 mi South 10.4 mph - N/A   Overcast
8:55 PM 39.2 °F 32.5 °F 35.6 °F 87% 30.21 in 10.0 mi South 10.4 mph 16.1 mph N/A   Mostly Cloudy
9:15 PM 39.2 °F 33.6 °F 35.6 °F 87% 30.20 in 10.0 mi South 8.1 mph - N/A   Mostly Cloudy
9:35 PM 39.2 °F 35.0 °F 35.6 °F 87% 30.22 in 10.0 mi South 5.8 mph - N/A   Overcast
9:55 PM 39.2 °F 33.6 °F 35.6 °F 87% 30.21 in 10.0 mi South 8.1 mph - N/A   Overcast
10:15 PM 39.2 °F 34.2 °F 35.6 °F 87% 30.20 in 10.0 mi South 6.9 mph - N/A   Overcast
10:35 PM 39.2 °F 33.6 °F 35.6 °F 87% 30.21 in 10.0 mi South 8.1 mph - N/A   Overcast
10:55 PM 39.2 °F 33.6 °F 35.6 °F 87% 30.20 in 10.0 mi South 8.1 mph - N/A   Overcast
11:15 PM 39.2 °F 33.6 °F 35.6 °F 87% 30.21 in 10.0 mi South 8.1 mph - N/A   Mostly Cloudy
11:35 PM 39.2 °F 34.2 °F 35.6 °F 87% 30.20 in 10.0 mi South 6.9 mph - N/A   Mostly Cloudy
11:55 PM 39.2 °F 35.0 °F 35.6 °F 87% 30.20 in 10.0 mi SSW 5.8 mph - N/A   Mostly Cloudy